Regional Weather Roundup
Issued by NWS Northern Indiana

Home | Current Version | Previous Version | Text Only | Print | Product List | Glossary Off
Versions: 1 2 3 4 5 6 7 8 9 10 11 12 13 14 15 16 17 18 19 20 21 22 23 24 25 26 27 28 29 30 31 32 33 34 35 36 37 38 39 40 41 42 43 44 45 46 47 48 49 50

000
ASUS43 KIWX 280910
RWRIWX

KIWX WEATHER ROUNDUP
NATIONAL WEATHER SERVICE NORTHERN INDIANA
400 AM EST SUN DEC 28 2014

NOTE: "FAIR" INDICATES FEW OR NO CLOUDS BELOW 12,000 FEET WITH NO
SIGNIFICANT WEATHER AND/OR OBSTRUCTIONS TO VISIBILITY.

* THESE STATIONS ARE NOT UNDER NWS QUALITY CONTROL. THEY ALSO MAY NOT
  REPORT WEATHER SUCH AS PRECIPITATION OR FOG.

INZ001>027-281000-
NORTHERN INDIANA

CITY           SKY/WX    TMP DP  RH WIND       PRES   REMARKS
GARY*          CLOUDY    32  22  67 W9        30.12F WCI  24
VALPARAISO     CLOUDY    30  25  81 W10       30.11S WCI  21
MICHIGAN CITY* CLOUDY    32  23  69 W8        30.10F WCI  25
LAPORTE*       CLOUDY    34  28  79 NW7       30.10S WCI  28
KNOX*          CLOUDY    32  26  76 NW9       30.10S WCI  24
SOUTH BEND     CLOUDY    35  27  72 NW7       30.08  WCI  29
GOSHEN         CLOUDY    34  28  79 NW7       30.06F WCI  28
MONTICELLO*    CLOUDY    31  28  86 NW9       30.12S WCI  23
LOGANSPORT*    CLOUDY    32  28  86 NW7       30.11S WCI  26
ROCHESTER*     CLOUDY    34  32  93 W6        30.09F WCI  29
WARSAW*        CLOUDY    32  30  93 W7        30.07F WCI  26
ANGOLA*        CLOUDY    34  28  80 NW6       30.04F WCI  29
FORT WAYNE     CLOUDY    34  29  82 NW6       30.07F WCI  29
HUNTINGTON*    CLOUDY    32  26  79 NW5       30.07F WCI  28
PERU/GRISSOM   CLOUDY    32  32 100 NW10      30.09S WCI  24
MARION*        CLOUDY    32  28  85 NW9       30.10S WCI  24

$$
INZ028>050-281000-
CENTRAL INDIANA

CITY           SKY/WX    TMP DP  RH WIND       PRES   REMARKS
LAFAYETTE      CLOUDY    31  26  82 NW10      30.14R WCI  22
KOKOMO*        CLOUDY    32  27  80 NW8       30.10R WCI  25
MUNCIE*        CLOUDY    33  29  85 NW12      30.09R WCI  24
INDIANAPOLIS   CLOUDY    30  27  88 NW14      30.11S WCI  19

$$
MIZ043>046-050>051-056>058-064>065-071>073-077>080-281000-
SOUTHWEST LOWER MICHIGAN

CITY           SKY/WX    TMP DP  RH WIND       PRES   REMARKS
BATTLE CREEK   CLOUDY    35  30  82 W12       30.03F WCI  27
BENTON HARBOR  CLOUDY    33  27  78 NW7       30.09S WCI  27
COLDWATER*     CLOUDY    33  30  89 W7        30.03F WCI  27
HILLSDALE*     CLOUDY    34  31  88 W6        30.01F WCI  29
HOLLAND        CLOUDY    35  27  72 W13       30.07S WCI  26
GRAND RAPIDS   CLOUDY    33  30  88 NW13      30.04S WCI  24
KALAMAZOO      MIX PCPN  35  29  78 W7        30.04F WCI  29
STURGIS*       CLOUDY    34  28  80 W6        30.04F WCI  29
THREE RIVERS*  LGT SNOW  34  30  86 NW6       30.06F WCI  29

$$
OHZ001>008-015>018-024>025-281000-
NORTHWEST OHIO

CITY           SKY/WX    TMP DP  RH WIND       PRES   REMARKS
WAUSEON*       CLOUDY    36  32  87 NW9       30.03F
DEFIANCE       CLOUDY    36  30  79 W6        30.06S
FINDLAY        CLOUDY    36  33  89 NW10      30.03F
TOLEDO EXPRESS CLOUDY    35  31  85 W8        30.04R WCI  29
TOLEDO METCALF CLOUDY    37  31  78 W9        30.04R
LIMA           CLOUDY    36  32  85 W10       30.04S FOG

$$
AND FOR LAKE MICHIGAN COASTAL AND OPEN LAKE BUOY OBSERVATIONS

STATION/POSITION TEMP    WIND        PRES    VSBY  WAVE
                 AIR SEA DIR/SP/G                  HT/PER
                 (F)     (DEG/KT/KT) (MB)    (MI)  (FT/S)
CALUMET HARBOR    31     290/  6/ 11 1018.6S
MICHIGAN CITY     32     260/ 14/ 17   N/A
SAINT JOSEPH      35     280/ 14/ 17 1019.3R

$$
&&


USA.gov is the U.S. government's official web portal to all federal, state and local government web resources and services.